Location: Oak Glen
(34.0495°N, 116.9470°E)
Time: 17:14:36
(UTC-08:00)

Hubble Space Telescope - Pass Details

Date: 10 October 2017
Orbit: 537 x 541 km, 28.5° (Epoch: 17 December)

Event Time Altitude Azimuth Distance (km) Brightness Sun altitude
Exits shadow 13:16:11 21° 159° (SSE) 1,242 2.7 -25.1°
Drops below altitude 10° 13:18:06 10° 136° (SE) 1,782 3.8 -24.7°
Sets 13:20:37 0° 123° (ESE) 2,673 5.0 -24.2°
